Content
SEND FEEDBACK

Daily
Averages
Monthly
Summary
United States of America

DEMING - AIRPORT, NEW MEXICO


Home > North America > United States > New Mexico
Elevation: 4300 feet     Latitude: 32 15N     Longitude: 107 42W

WEATHER
 
SELECT A DAY
Number of Records: 141,759;   Date Range: 1/1/95 - 9/18/14
 
SHARE

PRINT THIS DATA

[ ← Previous Day ]
WEATHER ALMANAC - JANUARY 31, 2013
[ Next Day → ]
[ °C ]   °F
Weather ElementAverageHighLow
Temperature39 °F55 °F (2:53 pm)21.9 °F (6:53 am)
Dewpoint17.7 °F19.9 °F (9:53 am)15.1 °F (3:53 pm)
Humidity47.3 %78 % (6:53 am)21 % (3:53 pm)
Barometer30.22 in30.28 in (7:53 am)30.17 in (3:53 pm)
Wind Speed3 mph6.9 mph (11:53 am)
Weather ElementAverage
Visibility10 mi
Wind DirectionSE (137.8 °)

Weather ElementTotal
Precipitation---
Heating Degree Days26.6 (Base 65)
Averaged from 23 records on January 31, 2013
WEATHER CONDITIONS BREAKOUT
WIND DIRECTION BREAKOUT
WEATHER BY HOUR - JANUARY 31, 2013
[ °C ]   °F
Local TimeTemperatureDewpointHumidityBarometerVisibilityWind DirectionWind SpeedGust SpeedPrecipitationEventsConditions
1:53 AM27.0 °F16.0 °F63 %30.22 in10.0 miWNW (290°)5.8 mphClear
2:53 AM24.1 °F17.1 °F75 %30.24 in10.0 miWest (260°)3.5 mphClear
3:53 AM24.1 °F16.0 °F71 %30.23 in10.0 miSW (230°)3.5 mphClear
4:53 AM23.0 °F16.0 °F74 %30.23 in10.0 miCalmClear
5:53 AM24.1 °F17.1 °F75 %30.24 in10.0 miNW (310°)4.6 mphClear
6:53 AM21.9 °F16.0 °F78 %30.27 in10.0 miCalmClear
7:53 AM24.1 °F17.1 °F75 %30.28 in10.0 miCalmClear
8:53 AM32.0 °F19.0 °F59 %30.28 in10.0 miSouth (180°)3.5 mphClear
9:53 AM43.0 °F19.9 °F40 %30.23 in10.0 miEast (90°)5.8 mphClear
10:53 AM48.0 °F19.0 °F32 %30.24 in10.0 miESE (120°)4.6 mphClear
11:53 AM48.9 °F19.0 °F31 %30.23 in10.0 miSSW (200°)6.9 mphClear
12:53 PM50.0 °F19.0 °F29 %30.21 in10.0 miCalmClear
1:53 PM54.0 °F19.0 °F25 %30.18 in10.0 miENE (70°)5.8 mphClear
2:53 PM55.0 °F16.0 °F22 %30.18 in10.0 miCalmClear
3:53 PM55.0 °F15.1 °F21 %30.17 in10.0 miCalmClear
4:53 PM54.0 °F15.1 °F22 %30.17 in10.0 miCalmClear
5:53 PM50.0 °F16.0 °F26 %30.18 in10.0 miCalmClear
6:53 PM46.0 °F18.0 °F33 %30.21 in10.0 miSW (220°)4.6 mphClear
7:53 PM44.1 °F17.1 °F34 %30.22 in10.0 miSW (220°)3.5 mphClear
8:53 PM41.0 °F19.9 °F43 %30.23 in10.0 miNW (320°)4.6 mphClear
9:53 PM39.0 °F19.9 °F46 %30.21 in10.0 miNNW (330°)3.5 mphClear
10:53 PM36.0 °F19.9 °F52 %30.19 in10.0 miNNW (330°)5.8 mphClear
11:53 PM32.0 °F19.9 °F61 %30.19 in10.0 miVariable3.5 mphClear
Hourly data recorded from KDMN, located miles away from Deming - Airport, New Mexico







STORIES FROM OUR PARTNERS